BAW209 EGLL-KMIA

Flight info

Callsign BAW209
Flight time N/A
Altitude 34000
Route GOGSI N621 EVTES N514 ADKIK DCT JOZMA DCT GAPLI/M083F340 DCT OMOKO DCT 47N020W 44N030W 42N040W/M083F360 36N050W 32N060W DCT WINGZ DCT GECAL M331 MEGGG/M083F380 M331 LFANO M595 MILLE/N0480F380 DCT ZQA VIICE2
Aircraft A388/J-SADE2E3FGHIJ3J4J5M1RWXY/LB1D1

Departure

Time 2026-05-04 07:59
Airport London Heathrow Airport (EGLL)

Arrival

Time N/A
Airport Miami International Airport (KMIA)
Time Latitude Longitude Altitude Speed Heading
2026-05-04 07:20 51.47317 -0.47500 95 ft 0 kts 270°
2026-05-04 07:43 51.47317 -0.47469 91 ft 3 kts 270°
2026-05-04 07:43 51.47317 -0.47433 94 ft 2 kts 270°
2026-05-04 07:43 51.47319 -0.47402 91 ft 3 kts 253°
2026-05-04 07:44 51.47327 -0.47376 94 ft 3 kts 224°
2026-05-04 07:44 51.47343 -0.47361 95 ft 3 kts 196°
2026-05-04 07:44 51.47363 -0.47357 91 ft 3 kts 180°
2026-05-04 07:44 51.47374 -0.47357 94 ft 3 kts 180°
2026-05-04 07:49 51.47230 -0.47353 92 ft 12 kts 179°
2026-05-04 07:49 51.47150 -0.47352 91 ft 8 kts 180°
2026-05-04 07:49 51.47079 -0.47352 93 ft 12 kts 180°
2026-05-04 07:50 51.46995 -0.47351 93 ft 11 kts 180°
2026-05-04 07:50 51.46912 -0.47351 91 ft 13 kts 180°
2026-05-04 07:50 51.46826 -0.47351 93 ft 13 kts 180°
2026-05-04 07:50 51.46731 -0.47349 95 ft 12 kts 179°
2026-05-04 07:51 51.46711 -0.47348 93 ft 3 kts 178°
2026-05-04 07:51 51.46681 -0.47338 92 ft 5 kts 150°
2026-05-04 07:51 51.46660 -0.47289 95 ft 6 kts 100°
2026-05-04 07:51 51.46657 -0.47207 92 ft 9 kts 92°
2026-05-04 07:52 51.46656 -0.47101 95 ft 10 kts 89°
2026-05-04 07:52 51.46657 -0.46977 93 ft 12 kts 89°
2026-05-04 07:52 51.46658 -0.46838 94 ft 13 kts 89°
2026-05-04 07:52 51.46660 -0.46687 95 ft 14 kts 89°
2026-05-04 07:53 51.46661 -0.46525 92 ft 15 kts 90°
2026-05-04 07:54 51.46664 -0.45244 94 ft 17 kts 90°
2026-05-04 07:55 51.46664 -0.45054 93 ft 16 kts 90°
2026-05-04 07:55 51.46664 -0.44869 93 ft 17 kts 90°
2026-05-04 07:55 51.46665 -0.44682 91 ft 17 kts 90°
2026-05-04 07:55 51.46665 -0.44491 91 ft 17 kts 90°
2026-05-04 07:56 51.46666 -0.44297 93 ft 17 kts 90°
2026-05-04 07:56 51.46666 -0.44155 92 ft 12 kts 90°
2026-05-04 07:56 51.46667 -0.44013 92 ft 10 kts 90°
2026-05-04 07:56 51.46667 -0.43908 94 ft 10 kts 90°
2026-05-04 07:57 51.46667 -0.43787 92 ft 12 kts 90°
2026-05-04 07:57 51.46662 -0.43663 91 ft 9 kts 118°
2026-05-04 07:57 51.46607 -0.43606 93 ft 11 kts 169°
2026-05-04 07:57 51.46533 -0.43601 95 ft 8 kts 191°
2026-05-04 07:58 51.46498 -0.43664 92 ft 8 kts 249°
2026-05-04 07:58 51.46494 -0.43689 94 ft 2 kts 266°
2026-05-04 07:58 51.46494 -0.43755 91 ft 18 kts 270°
2026-05-04 07:58 51.46494 -0.44398 92 ft 96 kts 269°
2026-05-04 07:59 51.46487 -0.45826 94 ft 154 kts 269°
2026-05-04 07:59 51.46503 -0.47722 236 ft 176 kts 274°
2026-05-04 07:59 51.46539 -0.49673 733 ft 175 kts 272°
2026-05-04 07:59 51.46529 -0.51637 1260 ft 176 kts 271°
2026-05-04 08:00 51.46507 -0.53604 1738 ft 178 kts 270°
2026-05-04 08:00 51.46475 -0.55659 1945 ft 192 kts 271°
2026-05-04 08:00 51.46459 -0.57124 2048 ft 202 kts 270°
2026-05-04 08:02 51.45310 -0.75966 4891 ft 268 kts 259°
2026-05-04 08:02 51.44567 -0.78686 5608 ft 271 kts 232°
2026-05-04 08:02 51.43178 -0.80700 6331 ft 273 kts 216°
2026-05-04 08:03 51.41611 -0.82442 7019 ft 276 kts 214°
2026-05-04 08:03 51.40016 -0.84185 7719 ft 279 kts 215°
2026-05-04 08:03 51.38424 -0.85978 8406 ft 281 kts 216°
2026-05-04 08:03 51.36834 -0.87821 9081 ft 284 kts 216°
2026-05-04 08:04 51.35241 -0.89695 9734 ft 286 kts 216°
2026-05-04 08:04 51.33631 -0.91600 10360 ft 291 kts 217°